TOURFACTS.DK  
Stats and Facts from Tour de France.

Tour de France 2018 starts in 203 days
  Riders   Stages   Teams   Summits   Yearly  


 
Search by year

 2017 - St. 21:  14824 starters.
  5132 different riders.
  635 teams.
  2232 stages.
  454 restdays.
  439589.60 km.
  5653 abandonnees.


Top 3
Christopher Froome86:20:55
Rigoberto Uran86:21:49
Romain Bardet86:23:15
Warren Barguil169 pt.
Primoz Roglic80 pt.
Thomas De Gendt64 pt.
Michael Matthews359 pt.
André Greipel234 pt.
Edvald Boasson Hagen220 pt.
Simon Yates86:27:09
Louis Meintjes86:29:15
Emanuel Buchmann86:54:16
Facts from Tour de France 1938
  |   Stages.  |   Stage winners.  |   Days in yellow  |   Average speed.  |   Route.  |   Teams.  |   All riders.  |   Rookies.  |   Withdrawls.  |  

  |   GC.  |   Polka  |   Green  |   White  |   Summits. (In tour)  |   Summits. (Points)  |   Miscellaneous.  |  

Stage 13 on 19 - 07 - 1938
         Owning:    Félicien Vervaecke    
Pick a stage:  1 2 3 4a 4b 4c 5 6a 6b 7 8 9 10a 10b 10c 11 12 13 14 15 16 17a 17b 18 19 20a 20b 20c 21
  CannesDigne-les-Bains | Dist: 284.00 km.
Cat: Col de BrausITAGino Bartali
10 points
 

Average speed for all riders in stage:  29,672 km./hr.
    Place:Name:Team:Time:Km/h:
ITADante GianelloFRABluets09:19:49  +  00:00:00=30,439 
FRAJean-Marie GoasmatFRAFrance09:19:49  +  00:00:00=30,439 
BELFrançois NeuvilleBELBelgium09:21:10  +  00:01:21=30,365 
4 FRAAuguste MalletFRAFrance09:21:10  +  00:01:21=30,365 
5 ITAMario ViciniITAItaly09:21:10  +  00:01:21=30,365 
6 GEROtto WeckerlingDEUGermany09:22:40  +  00:02:51=30,284 
7 FRAMathias ClemensLUXLuxembourg09:23:34  +  00:03:45=30,236 
8 FRAJean FontenayFRACadets09:23:52  +  00:04:03=30,220 
9 NEDTheo MiddelkampNLDHolland09:25:00  +  00:05:11=30,159 
10 FRAPierre GallienFRAFrance09:25:00  +  00:05:11=30,159 
11 SUIBruno CariniFRACadets09:26:13  +  00:06:24=30,094 
12 ITAGlauco ServadeiITAItaly09:27:30  +  00:07:41=30,026 
13 FRARaymond PassatFRACadets09:27:30  +  00:07:41=30,026 
14 ITAEnrico MolloITAItaly09:27:30  +  00:07:41=30,026 
15 ITAGiordano CotturITAItaly09:27:30  +  00:07:41=30,026 
16 ESPJulián BerrenderoESPSpain09:27:30  +  00:07:41=30,026 
17 FRAPierre ClemensLUXLuxembourg09:27:30  +  00:07:41=30,026 
18 FRAVictor CossonFRAFrance09:27:30  +  00:07:41=30,026 
19 BELEdward VissersBELBelgium09:27:30  +  00:07:41=30,026 
20 ITAGino BartaliITAItaly09:27:30  +  00:07:41=30,026 
21 BELFélicien VervaeckeBELBelgium09:27:30  +  00:07:41=30,026 
22 BELSylvère MaesBELBelgium09:27:30  +  00:07:41=30,026 
23 BELMarcel KintBELBelgium09:27:30  +  00:07:41=30,026 
24 FRAYvan MarieFRACadets09:27:30  +  00:07:41=30,026 
25 FRAGeorges NaisseFRAFrance09:27:30  +  00:07:41=30,026 
26 ESPMariano CañardoESPSpain09:27:30  +  00:07:41=30,026 
27 BELJules LowieBELBelgium09:27:30  +  00:07:41=30,026 
28 FRAAntonin MagneFRAFrance09:27:30  +  00:07:41=30,026 
29 BELAlbertin DisseauxBELBelgium09:27:30  +  00:07:41=30,026 
30 SUIPaul EgliCHESwitzerland09:30:39  +  00:10:50=29,861 
31 SUIRaymond LouviotFRACadets09:30:39  +  00:10:50=29,861 
32 ESPRafael RamosESPSpain09:30:39  +  00:10:50=29,861 
33 BELConstant LauwersBELBelgium09:30:39  +  00:10:50=29,861 
34 FRAAndré LeducqFRACadets09:30:39  +  00:10:50=29,861 
35 FRAJean FréchautFRAFrance09:30:39  +  00:10:50=29,861 
36 ITAOreste BernardoniFRABluets09:30:39  +  00:10:50=29,861 
37 FRARobert TanneveauFRACadets09:30:39  +  00:10:50=29,861 
38 FRAAlbert BourlonFRABluets09:30:39  +  00:10:50=29,861 
39 FRALucien Le GuevelFRABluets09:30:39  +  00:10:50=29,861 
40 BELEmile Masson jr.BELBelgium09:38:26  +  00:18:37=29,459 
41 ITAGiuseppe MartanoITAItaly09:38:26  +  00:18:37=29,459 
42 FRAMarcel LaurentFRAFrance09:39:30  +  00:19:41=29,405 
43 FRARobert OubronFRACadets09:39:30  +  00:19:41=29,405 
44 NEDAntoon Van SchendelNLDHolland09:39:30  +  00:19:41=29,405 
45 ITAVasco BergamaschiITAItaly09:39:30  +  00:19:41=29,405 
46 FRAPierre JaminetFRAFrance09:39:30  +  00:19:41=29,405 
47 LUXArsène MerschLUXLuxembourg09:43:01  +  00:23:12=29,227 
48 FRACamille LeroyFRABluets09:43:01  +  00:23:12=29,227 
49 FRAGaston GrimbertFRABluets09:43:01  +  00:23:12=29,227 
50 LUXFrançois NeuensLUXLuxembourg09:43:01  +  00:23:12=29,227 
51 GERJosef ArentsDEUGermany09:47:15  +  00:27:26=29,017 
52 GERHerbert HauswaldDEUGermany09:47:15  +  00:27:26=29,017 
53 BELRene WalschotBELBelgium09:47:15  +  00:27:26=29,017 
54 LUXJean MajerusLUXLuxembourg09:52:08  +  00:32:19=28,777 
55 ITAPierre SpaperiFRABluets09:52:08  +  00:32:19=28,777 
56 FRARaoul LesueurFRACadets09:52:08  +  00:32:19=28,777 
57 GERReinhold WendelDEUGermany09:52:08  +  00:32:19=28,777 
58 ITAAldo BiniITAItaly09:52:08  +  00:32:19=28,777 
59 FRAFabien GalateauFRACadets09:52:08  +  00:32:19=28,777 
60 ITANello TroggiITAItaly09:56:57  +  00:37:08=28,545 
61 ITALuigi IntrozziITAItaly09:56:57  +  00:37:08=28,545 
62 NEDJanus HellemonsNLDHolland09:59:01  +  00:39:12=28,447 

Withdrawls: 5
 
Rider
Team
Reason
18  FRAJules RossiITAItalyDid not finish
52  ESPJacques AlzineESPSpainDid not finish
55  SUIEdgar HehlenCHESwitzerlandDid not finish
60  SUIAlbert KnuttiCHESwitzerlandDid not finish
89  FRAJoseph GoutorbeFRABluetsDid not finish

Todays birthdays.

1874  Henri Timmermann
1877  Gustave Guillarme
1886  Guillaume Nyssen
1892  Albert Cartigny
1913  Arsène Mersch
1919  Jean Breuer
1927  Alfred Kain
1930  Edgard Sorgeloos
1937  Frans De Mulder
1960  Jacques Hanegraaf
1986  Andrey Zeits